Time,TemperatureF,DewpointF,PressureIn,WindDirection,WindDirectionDegrees,WindSpeedMPH,WindSpeedGustMPH,Humidity,HourlyPrecipIn,Conditions,Clouds,dailyrainin,SolarRadiationWatts/m^2,SoftwareType,DateUTC
2013-01-19 00:22:00,38.0,19.0,-100.00,SE,124,2.0,7.0,46,0.00,,,0.00,0.000000,,2013-01-19 08:22:00,
2013-01-19 00:32:00,38.0,19.0,-100.00,SE,124,2.0,7.0,46,0.00,,,0.00,0.000000,,2013-01-19 08:32:00,
2013-01-19 00:42:00,38.0,19.0,-100.00,SE,124,2.0,7.0,46,0.00,,,0.00,0.000000,,2013-01-19 08:42:00,
2013-01-19 00:52:00,38.0,19.0,-100.00,SE,124,2.0,7.0,46,0.00,,,0.00,0.000000,,2013-01-19 08:52:00,
2013-01-19 01:22:00,37.0,18.0,-100.00,ESE,113,1.0,7.0,46,0.00,,,0.00,0.000000,,2013-01-19 09:22:00,
2013-01-19 01:32:00,37.0,18.0,-100.00,ESE,113,1.0,7.0,46,0.00,,,0.00,0.000000,,2013-01-19 09:32:00,
2013-01-19 01:42:00,37.0,18.0,-100.00,ESE,113,1.0,7.0,46,0.00,,,0.00,0.000000,,2013-01-19 09:42:00,
2013-01-19 01:52:00,37.0,18.0,-100.00,ESE,113,1.0,7.0,46,0.00,,,0.00,0.000000,,2013-01-19 09:52:00,
2013-01-19 02:22:00,37.0,16.0,-100.00,ESE,112,0.0,8.0,41,0.00,,,0.00,0.000000,,2013-01-19 10:22:00,
2013-01-19 02:32:00,37.0,16.0,-100.00,ESE,112,0.0,8.0,41,0.00,,,0.00,0.000000,,2013-01-19 10:32:00,
2013-01-19 02:42:00,37.0,16.0,-100.00,ESE,112,0.0,8.0,41,0.00,,,0.00,0.000000,,2013-01-19 10:42:00,
2013-01-19 02:52:00,37.0,16.0,-100.00,ESE,112,0.0,8.0,41,0.00,,,0.00,0.000000,,2013-01-19 10:52:00,
2013-01-19 04:48:00,38.0,18.0,-100.00,ESE,119,1.0,6.0,43,0.00,,,0.00,0.000000,,2013-01-19 12:48:00,
2013-01-19 04:52:00,38.0,18.0,-100.00,ESE,119,1.0,6.0,43,0.00,,,0.00,0.000000,,2013-01-19 12:52:00,
2013-01-19 05:22:00,38.0,17.0,-100.00,SE,124,2.0,7.0,42,0.00,,,0.00,0.000000,,2013-01-19 13:22:00,
2013-01-19 05:33:00,38.0,17.0,-100.00,SE,124,2.0,7.0,42,0.00,,,0.00,0.000000,,2013-01-19 13:33:00,
2013-01-19 05:42:00,38.0,17.0,-100.00,SE,124,2.0,7.0,42,0.00,,,0.00,0.000000,,2013-01-19 13:42:00,
2013-01-19 05:52:00,38.0,17.0,-100.00,SE,124,2.0,7.0,42,0.00,,,0.00,0.000000,,2013-01-19 13:52:00,
2013-01-19 06:23:00,38.0,16.0,-100.00,ESE,115,1.0,7.0,40,0.00,,,0.00,0.000000,,2013-01-19 14:23:00,
2013-01-19 06:33:00,38.0,16.0,-100.00,ESE,115,1.0,7.0,40,0.00,,,0.00,0.000000,,2013-01-19 14:33:00,
2013-01-19 06:42:00,38.0,16.0,-100.00,ESE,115,1.0,7.0,40,0.00,,,0.00,0.000000,,2013-01-19 14:42:00,
2013-01-19 06:53:00,38.0,16.0,-100.00,ESE,115,1.0,7.0,40,0.00,,,0.00,0.000000,,2013-01-19 14:53:00,
2013-01-19 07:22:00,37.0,16.0,-100.00,ESE,121,3.0,6.0,41,0.00,,,0.00,0.000000,,2013-01-19 15:22:00,
2013-01-19 07:33:00,37.0,16.0,-100.00,ESE,121,3.0,6.0,41,0.00,,,0.00,0.000000,,2013-01-19 15:33:00,
2013-01-19 07:43:00,37.0,16.0,-100.00,ESE,121,3.0,6.0,41,0.00,,,0.00,0.000000,,2013-01-19 15:43:00,
2013-01-19 07:53:00,37.0,16.0,-100.00,ESE,121,3.0,6.0,41,0.00,,,0.00,0.000000,,2013-01-19 15:53:00,
2013-01-19 08:23:00,39.0,14.0,-100.00,ESE,119,1.0,7.0,36,0.00,,,0.00,11.000000,,2013-01-19 16:23:00,
2013-01-19 08:33:00,39.0,14.0,-100.00,ESE,119,1.0,7.0,36,0.00,,,0.00,11.000000,,2013-01-19 16:33:00,
2013-01-19 08:43:00,39.0,14.0,-100.00,ESE,119,1.0,7.0,36,0.00,,,0.00,11.000000,,2013-01-19 16:43:00,
2013-01-19 08:53:00,39.0,14.0,-100.00,ESE,119,1.0,7.0,36,0.00,,,0.00,11.000000,,2013-01-19 16:53:00,
2013-01-19 10:25:00,64.0,18.0,-100.00,WSW,237,0.0,10.0,17,-99.99,,,0.00,487.000000,,2013-01-19 18:25:00,
2013-01-19 11:28:00,66.0,21.0,-100.00,WSW,258,3.0,4.0,18,-99.99,,,0.00,632.000000,,2013-01-19 19:28:00,
2013-01-19 11:37:00,66.0,21.0,-100.00,WSW,258,3.0,4.0,18,-99.99,,,0.00,632.000000,,2013-01-19 19:37:00,
2013-01-19 12:24:00,66.0,19.0,-100.00,WNW,287,2.0,6.0,16,-99.99,,,0.00,714.000000,,2013-01-19 20:24:00,
2013-01-19 12:44:00,66.0,19.0,-100.00,WNW,287,2.0,6.0,16,-99.99,,,0.00,714.000000,,2013-01-19 20:44:00,
2013-01-19 12:53:00,66.0,19.0,-100.00,WNW,287,2.0,6.0,16,-99.99,,,0.00,714.000000,,2013-01-19 20:53:00,
2013-01-19 13:24:00,66.0,19.0,-100.00,West,275,3.0,7.0,16,0.00,,,0.00,726.000000,,2013-01-19 21:24:00,
2013-01-19 13:39:00,66.0,19.0,-100.00,West,275,3.0,7.0,16,0.00,,,0.00,726.000000,,2013-01-19 21:39:00,
2013-01-19 13:47:00,66.0,19.0,-100.00,West,275,3.0,7.0,16,0.00,,,0.00,726.000000,,2013-01-19 21:47:00,
2013-01-19 13:54:00,66.0,19.0,-100.00,West,275,3.0,7.0,16,0.00,,,0.00,726.000000,,2013-01-19 21:54:00,
2013-01-19 14:25:00,67.0,21.0,-100.00,West,268,3.0,7.0,17,0.00,,,0.00,668.000000,,2013-01-19 22:25:00,
2013-01-19 14:34:00,67.0,21.0,-100.00,West,268,3.0,7.0,17,0.00,,,0.00,668.000000,,2013-01-19 22:34:00,
2013-01-19 14:45:00,67.0,21.0,-100.00,West,268,3.0,7.0,17,0.00,,,0.00,668.000000,,2013-01-19 22:45:00,
2013-01-19 14:54:00,67.0,21.0,-100.00,West,268,3.0,7.0,17,0.00,,,0.00,668.000000,,2013-01-19 22:54:00,
2013-01-19 15:24:00,66.0,29.0,-100.00,West,269,4.0,7.0,25,0.00,,,0.00,541.000000,,2013-01-19 23:24:00,
2013-01-19 15:34:00,66.0,29.0,-100.00,West,269,4.0,7.0,25,0.00,,,0.00,541.000000,,2013-01-19 23:34:00,
2013-01-19 15:44:00,66.0,29.0,-100.00,West,269,4.0,7.0,25,0.00,,,0.00,541.000000,,2013-01-19 23:44:00,
2013-01-19 15:57:00,66.0,29.0,-100.00,West,269,4.0,7.0,25,0.00,,,0.00,541.000000,,2013-01-19 23:57:00,
2013-01-19 16:24:00,63.0,29.0,-100.00,SE,144,0.0,6.0,27,0.00,,,0.00,324.000000,,2013-01-20 00:24:00,
2013-01-19 16:34:00,63.0,29.0,-100.00,SE,144,0.0,6.0,27,0.00,,,0.00,324.000000,,2013-01-20 00:34:00,
2013-01-19 16:45:00,63.0,29.0,-100.00,SE,144,0.0,6.0,27,0.00,,,0.00,324.000000,,2013-01-20 00:45:00,
2013-01-19 16:53:00,63.0,29.0,-100.00,SE,144,0.0,6.0,27,0.00,,,0.00,324.000000,,2013-01-20 00:53:00,
2013-01-19 17:24:00,55.0,29.0,-100.00,ESE,120,0.0,7.0,37,0.00,,,0.00,124.000000,,2013-01-20 01:24:00,
2013-01-19 17:35:00,55.0,29.0,-100.00,ESE,120,0.0,7.0,37,0.00,,,0.00,124.000000,,2013-01-20 01:35:00,
2013-01-19 17:45:00,55.0,29.0,-100.00,ESE,120,0.0,7.0,37,0.00,,,0.00,124.000000,,2013-01-20 01:45:00,
2013-01-19 17:54:00,55.0,29.0,-100.00,ESE,120,0.0,7.0,37,0.00,,,0.00,124.000000,,2013-01-20 01:54:00,
2013-01-19 18:25:00,47.0,25.0,-100.00,SE,134,3.0,4.0,41,0.00,,,0.00,3.000000,,2013-01-20 02:25:00,
2013-01-19 18:34:00,47.0,25.0,-100.00,SE,134,3.0,4.0,41,0.00,,,0.00,3.000000,,2013-01-20 02:34:00,
2013-01-19 18:43:00,47.0,25.0,-100.00,SE,134,3.0,4.0,41,0.00,,,0.00,3.000000,,2013-01-20 02:43:00,
2013-01-19 18:54:00,47.0,25.0,-100.00,SE,134,3.0,4.0,41,0.00,,,0.00,3.000000,,2013-01-20 02:54:00,
2013-01-19 19:24:00,46.0,15.0,-100.00,East,99,0.0,7.0,28,0.00,,,0.00,0.000000,,2013-01-20 03:24:00,
2013-01-19 19:36:00,46.0,15.0,-100.00,East,99,0.0,7.0,28,0.00,,,0.00,0.000000,,2013-01-20 03:36:00,
2013-01-19 19:44:00,46.0,15.0,-100.00,East,99,0.0,7.0,28,0.00,,,0.00,0.000000,,2013-01-20 03:44:00,
2013-01-19 19:53:00,46.0,15.0,-100.00,East,99,0.0,7.0,28,0.00,,,0.00,0.000000,,2013-01-20 03:53:00,
2013-01-19 20:24:00,44.0,15.0,-100.00,ESE,120,1.0,4.0,31,0.00,,,0.00,0.000000,,2013-01-20 04:24:00,
2013-01-19 20:34:00,44.0,15.0,-100.00,ESE,120,1.0,4.0,31,0.00,,,0.00,0.000000,,2013-01-20 04:34:00,
2013-01-19 20:43:00,44.0,15.0,-100.00,ESE,120,1.0,4.0,31,0.00,,,0.00,0.000000,,2013-01-20 04:43:00,
2013-01-19 20:53:00,44.0,15.0,-100.00,ESE,120,1.0,4.0,31,0.00,,,0.00,0.000000,,2013-01-20 04:53:00,
2013-01-19 21:22:00,43.0,15.0,-100.00,SE,124,2.0,6.0,32,0.00,,,0.00,0.000000,,2013-01-20 05:22:00,
2013-01-19 21:32:00,43.0,15.0,-100.00,SE,124,2.0,6.0,32,0.00,,,0.00,0.000000,,2013-01-20 05:32:00,
2013-01-19 21:42:00,43.0,15.0,-100.00,SE,124,2.0,6.0,32,0.00,,,0.00,0.000000,,2013-01-20 05:42:00,
2013-01-19 21:52:00,43.0,15.0,-100.00,SE,124,2.0,6.0,32,0.00,,,0.00,0.000000,,2013-01-20 05:52:00,
2013-01-19 22:22:00,45.0,13.0,-100.00,SE,129,2.0,7.0,27,0.00,,,0.00,0.000000,,2013-01-20 06:22:00,
2013-01-19 22:33:00,45.0,13.0,-100.00,SE,129,2.0,7.0,27,0.00,,,0.00,0.000000,,2013-01-20 06:33:00,
2013-01-19 22:42:00,45.0,13.0,-100.00,SE,129,2.0,7.0,27,0.00,,,0.00,0.000000,,2013-01-20 06:42:00,
2013-01-19 22:52:00,45.0,13.0,-100.00,SE,129,2.0,7.0,27,0.00,,,0.00,0.000000,,2013-01-20 06:52:00,
2013-01-19 23:22:00,40.0,13.0,-100.00,SE,137,2.0,9.0,33,0.00,,,0.00,0.000000,,2013-01-20 07:22:00,
2013-01-19 23:32:00,40.0,13.0,-100.00,SE,137,2.0,9.0,33,0.00,,,0.00,0.000000,,2013-01-20 07:32:00,
2013-01-19 23:42:00,40.0,13.0,-100.00,SE,137,2.0,9.0,33,0.00,,,0.00,0.000000,,2013-01-20 07:42:00,
2013-01-19 23:52:00,40.0,13.0,-100.00,SE,137,2.0,9.0,33,0.00,,,0.00,0.000000,,2013-01-20 07:52:00,